Weather History for Morgantown, WV

Change the Weather History Date:

Saturday, January 25, 2003

  Actual Average Record
Temperature  
Mean Temperature 20 °F 32 °F  
Max Temperature 28 °F 39 °F 75 °F (1950)
Min Temperature 12 °F 24 °F -7 °F (1961)
Degree Days  
Heating Degree Days 46 34  
Month to date heating degree days 847  
Since 1 July heating degree days 2831  
Cooling Degree Days 0 0  
Month to date cooling degree days 0  
Year to date cooling degree days 0  
Moisture  
Dew Point 5 °F    
Average Humidity 54    
Maximum Humidity 73    
Minimum Humidity 34    
Precipitation  
Precipitation 0.00 in 0.09 in 1.10 in (1978)
Month to date precipitation 2.26  
Year to date precipitation 2.26  
Sea Level Pressure  
Sea Level Pressure 30.34 in    
Wind  
Wind Speed 7 mph (SW)    
Max Wind Speed 12 mph    
Max Gust Speed -    
Visibility 10 miles    
Events      
T = Trace of Precipitation, MM = Missing Value Source: NWS Daily Summary

Daily Weather History Graph

Daily Weather History Graph

Search for Another Location

Airport:

Trip Planner

Search our weather history database for the weather conditions in past years. The results will help you decide how hot, cold, wet, or windy it might be!

Date:

Astronomy

Jan. 25, 2003 Rise Set
Actual Time 7:33 AM EST 5:30 PM EST
Civil Twilight 7:04 AM EST 5:59 PM EST
Nautical Twilight 6:31 AM EST 6:32 PM EST
Astronomical Twilight 5:59 AM EST 7:04 PM EST
Moon 12:45 AM EST (1/25) 11:50 AM EST (1/25)
Length of Visible Light 10h 55m
Length of Day
9h 57m
Last Quarter, 46% of the Moon is Illuminated
Jan 25
Last Quarter
Feb 1
New
Feb 9
First Quarter
Feb 16
Full
Feb 23
Last Quarter

Hourly Weather History & Observations

Time (EST) Temp. Windchill Dew Point Humidity Pressure Visibility Wind Dir Wind Speed Gust Speed Precip Events Conditions
12:41 AM 14.0 °F 5.1 °F 6.8 °F 73% 30.37 in 10.0 mi SSW 5.8 mph - N/A   Overcast
12:53 AM 14.0 °F 5.1 °F 6.1 °F 71% 30.44 in 10.0 mi Variable 5.8 mph - N/A   Mostly Cloudy
1:53 AM 14.0 °F 2.9 °F 6.1 °F 71% 30.42 in 10.0 mi SSW 8.1 mph - N/A   Overcast
2:53 AM 14.0 °F 3.9 °F 5.0 °F 67% 30.41 in 10.0 mi SW 6.9 mph - N/A   Overcast
3:53 AM 12.9 °F 3.8 °F 3.9 °F 67% 30.41 in 10.0 mi SW 5.8 mph - N/A   Mostly Cloudy
4:53 AM 12.9 °F 0.7 °F 5.0 °F 71% 30.40 in 10.0 mi SSW 9.2 mph - N/A   Overcast
5:53 AM 12.9 °F 3.8 °F 5.0 °F 71% 30.40 in 10.0 mi SW 5.8 mph - N/A   Mostly Cloudy
6:53 AM 14.0 °F 2.9 °F 5.0 °F 67% 30.39 in 10.0 mi SSW 8.1 mph - N/A   Overcast
7:53 AM 14.0 °F 3.9 °F 5.0 °F 67% 30.39 in 10.0 mi SW 6.9 mph - N/A   Mostly Cloudy
8:53 AM 16.0 °F 8.8 °F 6.1 °F 65% 30.40 in 10.0 mi WSW 4.6 mph - N/A   Partly Cloudy
9:53 AM 17.1 °F 6.6 °F 6.1 °F 62% 30.40 in 10.0 mi SSW 8.1 mph - N/A   Mostly Cloudy
10:53 AM 19.0 °F 8.2 °F 5.0 °F 54% 30.38 in 10.0 mi SSW 9.2 mph - N/A   Overcast
11:53 AM 19.9 °F 8.6 °F 3.9 °F 50% 30.35 in 10.0 mi WSW 10.4 mph - N/A   Overcast
12:53 PM 21.9 °F 10.4 °F 3.9 °F 46% 30.32 in 10.0 mi SSW 11.5 mph - N/A   Overcast
1:53 PM 24.1 °F 13.7 °F 3.9 °F 42% 30.30 in 10.0 mi SW 10.4 mph - N/A   Overcast
2:53 PM 24.1 °F 14.4 °F 1.0 °F 37% 30.28 in 10.0 mi SW 9.2 mph - N/A   Overcast
3:53 PM 25.0 °F 18.1 °F 1.9 °F 37% 30.27 in 10.0 mi SW 5.8 mph - N/A   Overcast
4:53 PM 26.1 °F 17.6 °F 1.0 °F 34% 30.25 in 10.0 mi SSW 8.1 mph - N/A   Overcast
5:53 PM 25.0 °F 18.1 °F 3.9 °F 41% 30.25 in 10.0 mi South 5.8 mph - N/A   Overcast
6:53 PM 26.1 °F 20.5 °F 3.9 °F 39% 30.26 in 10.0 mi SW 4.6 mph - N/A   Overcast
7:53 PM 25.0 °F 19.3 °F 6.1 °F 45% 30.26 in 10.0 mi SW 4.6 mph - N/A   Overcast
8:53 PM 26.1 °F 20.5 °F 5.0 °F 41% 30.25 in 10.0 mi SSW 4.6 mph - N/A   Overcast
9:53 PM 27.0 °F 20.5 °F 6.1 °F 41% 30.23 in 10.0 mi SSW 5.8 mph - N/A   Overcast
10:53 PM 27.0 °F 20.5 °F 7.0 °F 43% - 10.0 mi SW 5.8 mph - N/A   Overcast
11:53 PM 28.0 °F 22.8 °F 7.0 °F 41% - 9.0 mi WSW 4.6 mph - N/A   Overcast